STARLINK-36701, 67658

Orbit data source: Space-Track

STARLINK-36701, 67658 is a payload satellite owned by SpaceX/Seattle (US) in SSO that was launched on Mon, 02 Feb 2026 UTC via an FALCON 9 launch vehicle from the Air Force Western Test Range (AFWTR). Payload-class satellites include a variety of spacecraft equipped with specific instruments for various scientific and technological missions. These include communications satellites like Starlink; space stations such as the ISS; scientific satellites like the Hubble; Earth observation satellites from companies like Planet Labs, Umbra, and HawkEye 360; GPS; miniature CubeSats for education and research; and military/defense satellites.

Loading next visibility...
Identifier
67658, 2026-022L
Orbit
SSO
Country
Flag of USUS
Related business
Manufacturer
SpaceX/Seattle
Mission
Operational spacecraft
Bus & Motor
STARLINK V2MO, Unknown motor
Mass
575 kg wet, ~530 kg dry
Launch date (UTC)
2026-02-02 (2 months ago)
Launch vehicle
FALCON 9
Launch site
Air Force Western Test Range (AFWTR)
Object type
Payload
Rocket body
Debris
Shape & HBR
Unknown shape, 17.7 m
Radar Cross Section
RCS unknown

Expand to show TLE details & history
Last TLE update: 5 hours ago

TLE from 5 hours ago
0 STARLINK-36701
1 67658U 26022L   26095.58905607  .00018921  00000-0  57218-3 0  9993
2 67658  97.2849 129.5220 0001554  84.0777 276.0643 15.34254426  9690
Epoch: 2026-04-05T14:08Z
TLE epoch observation values (Epoch: 2026-04-05T14:08:14.444Z)
Latitude
-0.00005°
Longitude
83.56951°
Altitude
466.137 km
Speed
7.633 km/s
True Right ascension
08h 38m 05s
True Declination
0° 00' 00"
Sunlit
Object was in full shadow at epoch
Visualization orbit readout
Latitude
Unknown
Longitude
Unknown
Altitude
Unknown
Speed
Unknown
Apparent Right ascension
Unknown
Apparent Declination
Unknown
Sunlit
N/A
Visualization observer readout
Local Sidereal Time
01:34:08
Azimuth
Unknown
Elevation
Unknown
Doppler factor
Unknown
Orbital elements
Apogee altitude
461.14 km
Perigee altitude
459.015 km
Semi-major axis
6,838.215 km
Eccentricity
0.00016
Inclination
97.2849°
RAAN
129.522°
Arg. of periapsis
84.0777°
True anomaly
276.04659°
Mean anomaly
276.0643°
Eccentric anomaly
276.05545°
Mean motion
3.83821 °/min
Orbital period
93.79 mins
BSTAR
0.00057218
Loading maneuver chart data...
Computing Atmospheric mass density...
Loading historical data...
Loading historical data...
Loading historical data...
Loading historical data...
Loading historical data...
Loading historical data...
Loading historical data...

Documentation

Showing up to 5 results
|